Lid_Strength_Index
4 6 7 9 14 17 19 17 15 14 14 12 10 10 10 10 9 10 3 1 1 1 0 -0 -0 -0 -1 -1 -1 -1 -1 -1 -1 -1 -1 -1 -1 -1 -1 -1 -1 -1 -1 -1 -1 -1 -1 -1 -1
7 6 8 12 18 20 19 16 14 13 11 10 10 10 10 9 5 5 4 1 1 0 0 -0 -0 -0 -1 -1 -1 -1 -1 -1 -1 -1 -1 -1 -1 -1 -1 -1 -1 -1 -1 -1 -1 -1 -1 -1 -1
6 7 11 13 19 20 19 16 13 12 11 11 11 10 9 8 4 4 2 1 0 0 -0 -0 -0 -0 -0 -1 -0 -0 -1 -1 -1 -1 -1 -1 -1 -1 -1 -1 -1 -1 -1 -1 -1 -1 -1 -1 -1
8 9 11 15 17 16 16 14 13 11 10 10 11 10 9 5 4 3 1 1 1 1 0 0 0 -0 -0 -1 -0 -0 -0 -0 -0 -0 -1 -1 -1 -1 -1 -0 -1 -1 -1 -1 -1 -1 -1 -1 -1
11 12 16 18 16 14 13 12 11 11 10 10 10 11 10 6 2 1 1 1 1 1 0 -0 0 0 -0 -0 -1 -0 -0 -0 -0 -0 -0 -1 -1 -1 -1 -0 -1 -1 -1 -1 -1 -1 -1 -1 -1
13 14 18 19 17 13 12 11 11 10 10 9 10 11 9 3 3 2 1 1 1 1 0 0 -0 -0 -0 -0 -0 0 -0 -0 -0 -0 -0 -0 -0 -0 -0 -0 -0 -1 -1 -1 -1 -1 -1 -1 -1
15 16 19 18 16 14 12 10 11 11 11 9 9 10 9 4 2 2 2 2 2 1 0 0 0 -0 0 1 1 1 0 -0 -0 -0 0 -0 0 0 -0 -0 -0 -0 -0 -1 -1 -1 -1 -1 -1
14 15 18 17 16 15 11 10 10 10 9 7 8 11 10 6 2 2 2 2 2 1 0 1 0 0 0 0 1 1 0 0 0 0 0 1 0 0 0 0 -0 -0 -0 -1 -1 -1 -1 -1 -0
12 16 19 17 15 14 10 10 8 8 9 8 8 8 7 3 2 3 3 3 3 2 1 1 1 1 1 0 0 -0 -0 0 0 0 0 1 0 0 0 0 0 -0 -0 -0 -1 -0 -0 -0 -0
13 16 16 12 12 12 10 12 9 9 10 9 8 7 6 4 4 4 5 5 4 3 2 1 1 0 0 0 -0 -0 -0 -0 -0 -0 -0 -0 0 1 -0 0 1 0 0 0 -0 -0 0 -0 1
15 16 13 12 11 11 12 11 9 10 11 9 9 8 7 7 4 4 5 4 4 3 2 1 1 1 1 0 0 -0 -0 1 0 0 -0 -0 0 1 1 1 1 1 0 0 -0 0 0 1 1
16 13 13 12 11 11 11 11 11 10 10 7 8 8 8 7 8 7 6 4 3 3 2 2 1 1 1 0 0 1 1 1 1 1 1 1 1 1 1 1 2 2 1 2 1 1 2 2 1
16 14 13 12 11 12 11 13 12 11 9 8 8 7 8 8 8 8 8 8 3 3 2 2 1 1 1 1 0 1 1 1 1 1 1 1 0 0 1 1 2 2 2 2 2 2 2 2 2
14 15 14 13 12 12 12 11 12 10 9 9 9 9 8 8 7 8 9 8 8 3 2 2 2 1 1 1 1 0 0 0 1 1 1 1 -0 0 1 1 1 2 2 2 2 2 2 2 2
15 17 16 14 14 13 12 15 13 11 10 10 10 10 9 9 8 8 8 10 8 7 3 2 2 2 1 1 1 1 1 1 1 0 1 0 -0 0 1 1 1 1 3 3 3 3 3 3 2
17 18 19 15 13 13 13 17 13 11 11 11 10 10 9 8 8 8 8 7 7 7 6 1 1 1 2 2 1 1 1 1 0 -0 -0 -0 0 0 1 2 1 1 2 3 3 3 3 3 2
18 21 20 17 14 14 15 17 14 10 12 12 11 12 11 9 8 8 7 7 7 7 7 5 1 1 1 2 2 1 0 0 0 0 1 0 0 0 1 2 2 2 2 3 3 3 3 3 2
21 21 21 20 15 14 16 16 14 12 12 12 11 11 11 10 9 7 7 7 7 7 7 6 1 1 1 1 1 1 1 1 0 0 1 0 1 0 1 2 2 2 3 2 3 3 2 2 2
17 18 18 16 14 15 15 15 14 12 12 12 12 11 10 10 8 8 8 8 8 8 7 6 6 2 1 2 2 2 2 2 1 1 0 0 0 1 1 2 2 2 2 3 2 2 3 3 2
16 17 18 16 14 14 15 16 14 13 13 12 11 10 10 10 7 4 5 8 9 8 8 7 6 5 1 1 1 1 1 1 1 1 1 0 0 0 1 2 2 2 2 2 2 2 2 2 2
16 17 17 17 16 15 16 17 16 13 11 10 9 9 9 8 7 6 5 5 4 5 4 5 6 4 1 1 1 1 2 2 2 2 1 1 0 1 1 1 1 2 2 2 2 2 2 3 2
19 14 15 16 18 20 15 21 17 14 12 11 10 9 7 7 6 6 6 5 5 4 5 5 3 4 1 1 2 2 3 4 2 2 1 1 1 1 1 1 1 2 2 2 2 1 2 2 3
17 14 15 16 17 17 18 19 18 14 15 12 9 8 8 8 7 7 6 5 5 6 7 6 5 4 2 2 2 2 3 2 2 2 2 2 2 1 1 1 1 2 2 1 1 1 2 1 2
12 14 14 15 17 21 18 18 19 15 13 11 9 8 8 9 9 8 8 8 8 7 7 8 5 4 2 2 2 2 3 3 3 2 2 2 2 1 2 2 2 2 1 1 1 1 1 1 1
14 17 21 23 21 21 16 17 16 12 10 11 11 11 10 10 10 11 11 11 11 10 10 8 8 6 2 2 2 2 2 2 3 2 2 2 2 2 1 2 2 2 1 2 2 1 1 2 1
17 16 19 22 22 20 15 17 16 10 10 10 11 11 11 12 12 12 13 12 12 11 11 11 9 9 8 3 2 2 2 3 2 2 2 2 2 2 2 2 2 2 1 1 1 1 1 1 1
16 17 14 17 16 18 16 14 11 12 12 12 12 12 13 14 13 13 13 13 13 12 11 10 10 9 9 9 2 2 2 2 3 2 2 2 2 3 2 1 2 2 1 1 1 1 2 1 1
14 11 16 15 22 22 18 17 18 16 14 14 14 14 15 15 15 14 14 14 14 13 12 10 10 10 9 9 7 2 2 3 3 3 3 3 2 2 2 2 2 2 1 1 2 2 1 1 1
13 14 13 14 16 20 22 19 13 15 15 15 15 15 16 16 16 16 15 15 15 14 13 12 11 11 10 10 8 4 3 3 3 3 3 3 3 3 3 2 3 3 2 2 2 1 1 2 1
12 13 13 18 18 16 17 19 13 14 14 15 16 15 16 16 16 16 16 16 15 15 14 14 12 11 11 10 7 3 3 4 3 4 3 3 4 3 3 3 3 3 2 2 2 2 1 2 2